Tracking 35237 objects as of 5-Sep-2026
HD Live streaming from Space Station
objects crossing your sky now

ONEWEB-0262

Track ONEWEB-0262 now!
10-day predictions
ONEWEB-0262 is classified as:


NORAD ID: 48980
Int'l Code: 2021-061P
Launch date: July 1, 2021
Source: United Kingdom (UK)
Launch site: VOSTOCHNY COSMODROME (VOSTO)
Your satellite tracking list
Your tracking list is empty




NASA's NSSDC Master Catalog

Two Line Element Set (TLE):
1 48980U 21060P   26248.44421227  .00000096  00000-0  21688-3 0  9999
2 48980  87.9128 212.8308 0001974  73.1079 287.0268 13.16594206250184
Source of the keplerian elements: AFSPC